| time (UTC) | temp C | wind direction | speed KPH | gust KPH | rain 1hr cm | rain 24hr cm | rain mn cm | humidity % | barometer mb |
| 20260505122516 | 12 | 180 | 4.8 | 11.3 | 0.00 | 0.00 | 0.00 | 52 | 1009.7 |
| 20260505122016 | 12 | 180 | 8.0 | 12.9 | 0.00 | 0.00 | 0.00 | 52 | 1009.7 |
| 20260505121516 | 12 | 180 | 6.4 | 9.7 | 0.00 | 0.00 | 0.00 | 52 | 1009.4 |
| 20260505121016 | 12 | 180 | 6.4 | 12.9 | 0.00 | 0.00 | 0.00 | 52 | 1009.4 |
| 20260505120516 | 12 | 158 | 12.9 | 25.7 | 0.00 | 0.00 | 0.00 | 52 | 1009.3 |
| 20260505120016 | 12 | 180 | 8.0 | 19.3 | 0.00 | 0.00 | 0.00 | 52 | 1009.3 |
| 20260505115516 | 12 | 158 | 8.0 | 16.1 | 0.00 | 0.00 | 0.00 | 52 | 1009.2 |
| 20260505115016 | 12 | 158 | 11.3 | 17.7 | 0.00 | 0.00 | 0.00 | 51 | 1009.2 |
| 20260505114516 | 12 | 180 | 11.3 | 24.1 | 0.00 | 0.00 | 0.00 | 51 | 1008.8 |
| 20260505114016 | 12 | 180 | 12.9 | 22.5 | 0.00 | 0.00 | 0.00 | 51 | 1008.8 |
| 20260505113516 | 12 | 158 | 16.1 | 25.7 | 0.00 | 0.00 | 0.00 | 51 | 1008.7 |
| 20260505113016 | 12 | 180 | 16.1 | 24.1 | 0.00 | 0.00 | 0.00 | 52 | 1008.7 |
| 20260505112536 | 12 | 180 | 12.9 | 24.1 | 0.00 | 0.00 | 0.00 | 52 | 1008.7 |
| 20260505112036 | 12 | 180 | 11.3 | 19.3 | 0.00 | 0.00 | 0.00 | 52 | 1008.6 |
| 20260505111516 | 12 | 180 | 16.1 | 24.1 | 0.00 | 0.00 | 0.00 | 53 | 1009.7 |
| 20260505111016 | 12 | 158 | 17.7 | 33.8 | 0.00 | 0.00 | 0.00 | 54 | 1009.6 |
| 20260505110516 | 12 | 158 | 17.7 | 27.4 | 0.00 | 0.00 | 0.00 | 54 | 1009.7 |
| 20260505102016 | 12 | 180 | 4.8 | 11.3 | 0.00 | 0.00 | 0.00 | 55 | 1010.2 |
| 20260505101536 | 12 | 135 | 3.2 | 6.4 | 0.00 | 0.00 | 0.00 | 55 | 1010.2 |
| 20260505101016 | 12 | 135 | 6.4 | 14.5 | 0.00 | 0.00 | 0.00 | 55 | 1010.3 |
| 20260505100536 | 12 | 90 | 3.2 | 9.7 | 0.00 | 0.00 | 0.00 | 55 | 1010.3 |
| 20260505100025 | 12 | 135 | 3.2 | 8.0 | 0.00 | 0.00 | 0.00 | 55 | 1010.3 |
| 20260505095516 | 12 | 293 | 3.2 | 8.0 | 0.00 | 0.00 | 0.00 | 56 | 1010.3 |
| 20260505095016 | 12 | 0.0 | 4.8 | 0.00 | 0.00 | 0.00 | 55 | 1010.3 | |
| 20260505094516 | 12 | 293 | 1.6 | 6.4 | 0.00 | 0.00 | 0.00 | 54 | 1010.6 |
| 20260505094036 | 12 | 315 | 6.4 | 16.1 | 0.00 | 0.00 | 0.00 | 55 | 1010.6 |
| 20260505093516 | 12 | 338 | 8.0 | 17.7 | 0.00 | 0.00 | 0.00 | 55 | 1010.6 |
| 20260505093016 | 12 | 225 | 4.8 | 11.3 | 0.00 | 0.00 | 0.00 | 54 | 1010.6 |
| 20260505092516 | 12 | 113 | 8.0 | 20.9 | 0.00 | 0.00 | 0.00 | 55 | 1010.7 |
| 20260505092016 | 12 | 158 | 4.8 | 9.7 | 0.00 | 0.00 | 0.00 | 55 | 1010.7 |
| 20260505091556 | 12 | 113 | 6.4 | 16.1 | 0.00 | 0.00 | 0.00 | 55 | 1010.5 |
| 20260505091036 | 12 | 158 | 3.2 | 8.0 | 0.00 | 0.00 | 0.00 | 55 | 1010.4 |
| 20260505090516 | 12 | 180 | 4.8 | 14.5 | 0.00 | 0.00 | 0.00 | 55 | 1010.5 |
| 20260505090037 | 12 | 113 | 9.7 | 20.9 | 0.00 | 0.00 | 0.00 | 56 | 1010.6 |
| 20260505085516 | 12 | 135 | 14.5 | 29.0 | 0.00 | 0.00 | 0.00 | 56 | 1010.7 |
| 20260505085016 | 12 | 135 | 14.5 | 20.9 | 0.00 | 0.00 | 0.00 | 57 | 1010.6 |
| 20260505084516 | 12 | 135 | 14.5 | 20.9 | 0.00 | 0.00 | 0.00 | 58 | 1010.7 |
| 20260505084016 | 12 | 113 | 12.9 | 24.1 | 0.00 | 0.00 | 0.00 | 58 | 1010.6 |
| 20260505083516 | 12 | 135 | 11.3 | 22.5 | 0.00 | 0.00 | 0.00 | 59 | 1010.7 |
| 20260505083016 | 12 | 135 | 11.3 | 16.1 | 0.00 | 0.00 | 0.00 | 60 | 1010.7 |
| 20260505082516 | 12 | 135 | 14.5 | 32.2 | 0.00 | 0.00 | 0.00 | 60 | 1010.9 |
| 20260505082036 | 11 | 135 | 14.5 | 24.1 | 0.00 | 0.00 | 0.00 | 62 | 1010.5 |
| 20260505081536 | 11 | 135 | 12.9 | 19.3 | 0.00 | 0.00 | 0.00 | 63 | 1010.4 |
| 20260505081016 | 11 | 135 | 12.9 | 17.7 | 0.00 | 0.00 | 0.00 | 64 | 1010.6 |
| 20260505080516 | 11 | 135 | 11.3 | 16.1 | 0.00 | 0.00 | 0.00 | 63 | 1010.6 |
| 20260505080016 | 11 | 135 | 9.7 | 25.7 | 0.00 | 0.00 | 0.00 | 63 | 1010.6 |
| 20260505075516 | 11 | 135 | 8.0 | 12.9 | 0.00 | 0.00 | 0.00 | 63 | 1010.7 |
| 20260505075016 | 11 | 113 | 8.0 | 12.9 | 0.00 | 0.00 | 0.00 | 63 | 1010.7 |
| 20260505074516 | 11 | 135 | 8.0 | 12.9 | 0.00 | 0.00 | 0.00 | 63 | 1010.7 |
| 20260505074016 | 12 | 135 | 9.7 | 14.5 | 0.00 | 0.00 | 0.00 | 63 | 1010.8 |
| 20260505073516 | 12 | 135 | 9.7 | 12.9 | 0.00 | 0.00 | 0.00 | 63 | 1010.8 |
| 20260505073016 | 12 | 135 | 9.7 | 12.9 | 0.00 | 0.00 | 0.00 | 62 | 1011.1 |
| 20260505072516 | 12 | 135 | 8.0 | 12.9 | 0.00 | 0.00 | 0.00 | 62 | 1011.1 |
| 20260505072016 | 12 | 68 | 6.4 | 11.3 | 0.00 | 0.00 | 0.00 | 62 | 1011.1 |
| 20260505071516 | 12 | 158 | 3.2 | 8.0 | 0.00 | 0.00 | 0.00 | 62 | 1010.8 |
| 20260505071016 | 12 | 158 | 6.4 | 11.3 | 0.00 | 0.00 | 0.00 | 61 | 1010.9 |
| 20260505070516 | 12 | 315 | 1.6 | 4.8 | 0.00 | 0.00 | 0.00 | 61 | 1011.3 |
| 20260505070018 | 12 | 158 | 9.7 | 17.7 | 0.00 | 0.00 | 0.00 | 61 | 1011.2 |
| 20260505065516 | 12 | 180 | 9.7 | 19.3 | 0.00 | 0.00 | 0.00 | 61 | 1011.2 |
| 20260505065016 | 12 | 203 | 12.9 | 20.9 | 0.00 | 0.00 | 0.00 | 60 | 1011.1 |
| 20260505064515 | 12 | 203 | 9.7 | 22.5 | 0.00 | 0.00 | 0.00 | 60 | 1010.7 |
| 20260505064016 | 12 | 158 | 9.7 | 24.1 | 0.00 | 0.00 | 0.00 | 59 | 1010.6 |
| 20260505063516 | 12 | 203 | 11.3 | 32.2 | 0.00 | 0.00 | 0.00 | 59 | 1010.4 |
| 20260505063015 | 12 | 180 | 16.1 | 27.4 | 0.00 | 0.00 | 0.00 | 59 | 1010.4 |
| 20260505062516 | 13 | 180 | 19.3 | 37.0 | 0.00 | 0.00 | 0.00 | 58 | 1010.2 |
| 20260505062036 | 13 | 180 | 17.7 | 32.2 | 0.00 | 0.00 | 0.00 | 58 | 1010.5 |
| 20260505061516 | 13 | 180 | 12.9 | 25.7 | 0.00 | 0.00 | 0.00 | 57 | 1010.1 |
| 20260505061016 | 13 | 180 | 20.9 | 38.6 | 0.00 | 0.00 | 0.00 | 57 | 1010.0 |
| 20260505060515 | 13 | 180 | 20.9 | 46.7 | 0.00 | 0.00 | 0.00 | 56 | 1010.0 |
| 20260505060016 | 13 | 180 | 17.7 | 27.4 | 0.00 | 0.00 | 0.00 | 55 | 1009.7 |
| 20260505055517 | 13 | 180 | 19.3 | 32.2 | 0.00 | 0.00 | 0.00 | 55 | 1009.8 |
| 20260505055017 | 13 | 158 | 16.1 | 30.6 | 0.00 | 0.00 | 0.00 | 54 | 1010.2 |
| 20260505054517 | 13 | 158 | 12.9 | 24.1 | 0.00 | 0.00 | 0.00 | 53 | 1009.9 |
| 20260505054017 | 13 | 135 | 12.9 | 25.7 | 0.00 | 0.00 | 0.00 | 53 | 1009.9 |
| 20260505053537 | 13 | 135 | 11.3 | 24.1 | 0.00 | 0.00 | 0.00 | 52 | 1009.9 |
| 20260505053017 | 13 | 113 | 11.3 | 20.9 | 0.00 | 0.00 | 0.00 | 52 | 1009.9 |
| 20260505052517 | 13 | 135 | 9.7 | 19.3 | 0.00 | 0.00 | 0.00 | 51 | 1009.9 |
| 20260505052017 | 14 | 135 | 9.7 | 17.7 | 0.00 | 0.00 | 0.00 | 51 | 1010.0 |
| 20260505051517 | 14 | 135 | 8.0 | 17.7 | 0.00 | 0.00 | 0.00 | 50 | 1009.9 |
| 20260505051017 | 14 | 180 | 3.2 | 6.4 | 0.00 | 0.00 | 0.00 | 50 | 1009.9 |
| 20260505050517 | 14 | 158 | 4.8 | 8.0 | 0.00 | 0.00 | 0.00 | 49 | 1009.9 |
| 20260505041617 | 15 | 135 | 1.6 | 6.4 | 0.00 | 0.00 | 0.00 | 41 | 1009.2 |
| 20260505041017 | 15 | 135 | 1.6 | 6.4 | 0.00 | 0.00 | 0.00 | 40 | 1009.2 |
| 20260505040516 | 15 | 0.0 | 3.2 | 0.00 | 0.00 | 0.00 | 39 | 1009.0 | |
| 20260505040031 | 16 | 135 | 6.4 | 11.3 | 0.00 | 0.00 | 0.00 | 39 | 1009.0 |
| 20260505035516 | 16 | 135 | 8.0 | 11.3 | 0.00 | 0.00 | 0.00 | 38 | 1008.8 |
| 20260505035017 | 16 | 135 | 4.8 | 8.0 | 0.00 | 0.00 | 0.00 | 38 | 1008.8 |
| 20260505034516 | 16 | 135 | 4.8 | 14.5 | 0.00 | 0.00 | 0.00 | 38 | 1008.7 |
| 20260505034017 | 16 | 135 | 6.4 | 11.3 | 0.00 | 0.00 | 0.00 | 38 | 1008.7 |
| 20260505033516 | 16 | 135 | 6.4 | 12.9 | 0.00 | 0.00 | 0.00 | 38 | 1008.5 |
| 20260505033017 | 16 | 135 | 6.4 | 12.9 | 0.00 | 0.00 | 0.00 | 38 | 1008.4 |
| 20260505032517 | 16 | 135 | 9.7 | 12.9 | 0.00 | 0.00 | 0.00 | 38 | 1008.4 |
| 20260505032016 | 16 | 158 | 6.4 | 12.9 | 0.00 | 0.00 | 0.00 | 37 | 1008.3 |
| 20260505031517 | 16 | 135 | 4.8 | 11.3 | 0.00 | 0.00 | 0.00 | 37 | 1008.1 |
| 20260505031016 | 16 | 135 | 9.7 | 14.5 | 0.00 | 0.00 | 0.00 | 36 | 1008.0 |
| 20260505030517 | 16 | 158 | 9.7 | 16.1 | 0.00 | 0.00 | 0.00 | 35 | 1007.9 |
| 20260505030017 | 16 | 158 | 9.7 | 16.1 | 0.00 | 0.00 | 0.00 | 35 | 1007.9 |
| 20260505025536 | 16 | 135 | 11.3 | 17.7 | 0.00 | 0.00 | 0.00 | 35 | 1007.9 |
| 20260505025057 | 16 | 135 | 11.3 | 16.1 | 0.00 | 0.00 | 0.00 | 35 | 1007.7 |
| 20260505024516 | 17 | 135 | 12.9 | 17.7 | 0.00 | 0.00 | 0.00 | 34 | 1007.3 |
| 20260505024016 | 17 | 135 | 11.3 | 17.7 | 0.00 | 0.00 | 0.00 | 34 | 1007.2 |
| 20260505023517 | 17 | 158 | 8.0 | 12.9 | 0.00 | 0.00 | 0.00 | 33 | 1007.2 |
| 20260505023056 | 17 | 158 | 8.0 | 12.9 | 0.00 | 0.00 | 0.00 | 33 | 1007.2 |
| 20260505022536 | 18 | 158 | 8.0 | 14.5 | 0.00 | 0.00 | 0.00 | 32 | 1007.5 |
| 20260505022016 | 18 | 180 | 4.8 | 12.9 | 0.00 | 0.00 | 0.00 | 32 | 1007.5 |
| 20260505021516 | 18 | 180 | 8.0 | 12.9 | 0.00 | 0.00 | 0.00 | 30 | 1007.0 |
| 20260505021016 | 18 | 203 | 8.0 | 14.5 | 0.00 | 0.00 | 0.00 | 30 | 1007.1 |
| 20260505020557 | 19 | 203 | 8.0 | 11.3 | 0.00 | 0.00 | 0.00 | 32 | 1007.5 |
| 20260505020017 | 19 | 203 | 8.0 | 11.3 | 0.00 | 0.00 | 0.00 | 30 | 1007.4 |
| 20260505015516 | 20 | 225 | 4.8 | 9.7 | 0.00 | 0.00 | 0.00 | 30 | 1007.4 |
| 20260505015016 | 20 | 225 | 6.4 | 11.3 | 0.00 | 0.00 | 0.00 | 30 | 1007.4 |
| 20260505014516 | 20 | 203 | 4.8 | 9.7 | 0.00 | 0.00 | 0.00 | 29 | 1007.3 |
| 20260505014036 | 20 | 203 | 4.8 | 11.3 | 0.00 | 0.00 | 0.00 | 29 | 1007.6 |
| 20260505013536 | 20 | 203 | 1.6 | 6.4 | 0.00 | 0.00 | 0.00 | 29 | 1007.2 |
| 20260505013016 | 20 | 203 | 1.6 | 6.4 | 0.00 | 0.00 | 0.00 | 30 | 1007.3 |
| 20260505012516 | 20 | 203 | 3.2 | 8.0 | 0.00 | 0.00 | 0.00 | 30 | 1007.3 |
| 20260505012016 | 20 | 203 | 4.8 | 6.4 | 0.00 | 0.00 | 0.00 | 30 | 1007.3 |
| 20260505011536 | 20 | 203 | 1.6 | 6.4 | 0.00 | 0.00 | 0.00 | 30 | 1007.3 |
| 20260505011016 | 20 | 225 | 1.6 | 3.2 | 0.00 | 0.00 | 0.00 | 32 | 1007.5 |
| 20260505010536 | 20 | 225 | 3.2 | 4.8 | 0.00 | 0.00 | 0.00 | 31 | 1007.5 |
| 20260505010017 | 19 | 225 | 3.2 | 6.4 | 0.00 | 0.00 | 0.00 | 32 | 1007.5 |
| 20260505005516 | 19 | 270 | 3.2 | 6.4 | 0.00 | 0.00 | 0.00 | 31 | 1007.6 |
| 20260505005016 | 19 | 0.0 | 3.2 | 0.00 | 0.00 | 0.00 | 30 | 1007.6 | |
| 20260505004536 | 19 | 0.0 | 0.0 | 0.00 | 0.00 | 0.00 | 30 | 1007.6 | |
| 20260505004016 | 19 | 0.0 | 1.6 | 0.00 | 0.00 | 0.00 | 29 | 1007.6 | |
| 20260505003516 | 19 | 270 | 3.2 | 6.4 | 0.00 | 0.00 | 0.00 | 29 | 1007.6 |
| 20260505003016 | 19 | 270 | 3.2 | 8.0 | 0.00 | 0.00 | 0.00 | 29 | 1007.7 |
| 20260505002516 | 19 | 0.0 | 3.2 | 0.00 | 0.00 | 0.00 | 30 | 1007.8 | |
| 20260505002016 | 19 | 0.0 | 0.0 | 0.00 | 0.00 | 0.00 | 33 | 1007.8 | |
| 20260505001516 | 19 | 0.0 | 3.2 | 0.00 | 0.00 | 0.00 | 31 | 1007.9 | |
| 20260505001016 | 19 | 158 | 3.2 | 8.0 | 0.00 | 0.00 | 0.00 | 33 | 1007.9 |
| 20260505000516 | 18 | 135 | 8.0 | 14.5 | 0.00 | 0.00 | 0.00 | 35 | 1008.0 |
| 20260505000017 | 18 | 135 | 9.7 | 14.5 | 0.00 | 0.00 | 0.00 | 34 | 1008.0 |
| 20260504235516 | 18 | 135 | 9.7 | 16.1 | 0.00 | 0.00 | 0.00 | 34 | 1008.0 |
| 20260504235016 | 18 | 135 | 9.7 | 19.3 | 0.00 | 0.00 | 0.00 | 36 | 1007.6 |
| 20260504234516 | 18 | 113 | 12.9 | 20.9 | 0.00 | 0.00 | 0.00 | 37 | 1007.7 |
| 20260504234016 | 17 | 135 | 16.1 | 22.5 | 0.00 | 0.00 | 0.00 | 38 | 1007.7 |
| 20260504233516 | 17 | 135 | 17.7 | 27.4 | 0.00 | 0.00 | 0.00 | 38 | 1007.8 |
| 20260504233016 | 17 | 135 | 20.9 | 32.2 | 0.00 | 0.00 | 0.00 | 37 | 1007.8 |
| 20260504232516 | 17 | 135 | 22.5 | 37.0 | 0.00 | 0.00 | 0.00 | 38 | 1007.9 |
| 20260504232016 | 17 | 135 | 20.9 | 32.2 | 0.00 | 0.00 | 0.00 | 37 | 1008.0 |
| 20260504231516 | 17 | 135 | 20.9 | 35.4 | 0.00 | 0.00 | 0.00 | 37 | 1008.1 |
| 20260504231016 | 17 | 113 | 24.1 | 37.0 | 0.00 | 0.00 | 0.00 | 37 | 1008.2 |
| 20260504230516 | 18 | 135 | 20.9 | 35.4 | 0.00 | 0.00 | 0.00 | 35 | 1008.2 |
| 20260504230016 | 18 | 135 | 20.9 | 37.0 | 0.00 | 0.00 | 0.00 | 34 | 1008.7 |
| 20260504225516 | 19 | 180 | 19.3 | 37.0 | 0.00 | 0.00 | 0.00 | 32 | 1009.0 |
| 20260504225016 | 20 | 180 | 11.3 | 17.7 | 0.00 | 0.00 | 0.00 | 31 | 1008.9 |
| 20260504224516 | 21 | 203 | 14.5 | 24.1 | 0.00 | 0.00 | 0.00 | 29 | 1009.1 |
| 20260504224016 | 21 | 315 | 8.0 | 17.7 | 0.00 | 0.00 | 0.00 | 27 | 1009.5 |
| 20260504223516 | 22 | 315 | 11.3 | 19.3 | 0.00 | 0.00 | 0.00 | 28 | 1009.4 |
| 20260504223016 | 22 | 293 | 11.3 | 22.5 | 0.00 | 0.00 | 0.00 | 29 | 1009.3 |
| 20260504222516 | 21 | 315 | 16.1 | 27.4 | 0.00 | 0.00 | 0.00 | 28 | 1009.2 |
| 20260504222016 | 22 | 315 | 17.7 | 27.4 | 0.00 | 0.00 | 0.00 | 28 | 1009.2 |
| 20260504221516 | 22 | 315 | 20.9 | 32.2 | 0.00 | 0.00 | 0.00 | 30 | 1009.2 |
| 20260504221016 | 22 | 0 | 12.9 | 22.5 | 0.00 | 0.00 | 0.00 | 29 | 1009.0 |
| 20260504220536 | 22 | 315 | 14.5 | 20.9 | 0.00 | 0.00 | 0.00 | 28 | 1009.3 |
| 20260504220030 | 22 | 293 | 9.7 | 17.7 | 0.00 | 0.00 | 0.00 | 26 | 1009.3 |
| 20260504215516 | 22 | 338 | 9.7 | 19.3 | 0.00 | 0.00 | 0.00 | 30 | 1009.3 |
| 20260504215016 | 22 | 338 | 12.9 | 25.7 | 0.00 | 0.00 | 0.00 | 28 | 1009.4 |
| 20260504214536 | 22 | 315 | 17.7 | 24.1 | 0.00 | 0.00 | 0.00 | 29 | 1009.1 |
| 20260504214036 | 22 | 315 | 17.7 | 29.0 | 0.00 | 0.00 | 0.00 | 27 | 1009.2 |
| 20260504213516 | 22 | 0 | 8.0 | 17.7 | 0.00 | 0.00 | 0.00 | 28 | 1009.6 |
| 20260504213016 | 22 | 338 | 17.7 | 24.1 | 0.00 | 0.00 | 0.00 | 28 | 1009.7 |
| 20260504212516 | 23 | 338 | 9.7 | 19.3 | 0.00 | 0.00 | 0.00 | 26 | 1009.7 |
| 20260504212016 | 23 | 338 | 14.5 | 20.9 | 0.00 | 0.00 | 0.00 | 28 | 1009.8 |
| 20260504211516 | 23 | 338 | 16.1 | 24.1 | 0.00 | 0.00 | 0.00 | 28 | 1009.9 |
| 20260504211016 | 22 | 338 | 14.5 | 20.9 | 0.00 | 0.00 | 0.00 | 29 | 1009.7 |
| 20260504210516 | 22 | 315 | 11.3 | 20.9 | 0.00 | 0.00 | 0.00 | 28 | 1009.7 |
| 20260504210016 | 22 | 338 | 11.3 | 22.5 | 0.00 | 0.00 | 0.00 | 26 | 1009.8 |
| 20260504205516 | 22 | 315 | 9.7 | 22.5 | 0.00 | 0.00 | 0.00 | 28 | 1009.8 |
| 20260504205016 | 22 | 315 | 9.7 | 24.1 | 0.00 | 0.00 | 0.00 | 28 | 1009.9 |
| 20260504204516 | 22 | 338 | 11.3 | 19.3 | 0.00 | 0.00 | 0.00 | 30 | 1009.9 |
| 20260504204016 | 21 | 23 | 9.7 | 16.1 | 0.00 | 0.00 | 0.00 | 32 | 1010.0 |
| 20260504203516 | 21 | 315 | 6.4 | 12.9 | 0.00 | 0.00 | 0.00 | 31 | 1009.7 |
| 20260504203016 | 21 | 315 | 11.3 | 19.3 | 0.00 | 0.00 | 0.00 | 31 | 1009.9 |
| 20260504202516 | 21 | 338 | 16.1 | 24.1 | 0.00 | 0.00 | 0.00 | 30 | 1010.2 |
| 20260504202016 | 21 | 315 | 14.5 | 22.5 | 0.00 | 0.00 | 0.00 | 28 | 1010.1 |
| 20260504201516 | 22 | 0 | 9.7 | 19.3 | 0.00 | 0.00 | 0.00 | 30 | 1010.2 |
| 20260504201036 | 22 | 338 | 12.9 | 19.3 | 0.00 | 0.00 | 0.00 | 32 | 1010.2 |
| 20260504200536 | 22 | 338 | 14.5 | 19.3 | 0.00 | 0.00 | 0.00 | 28 | 1010.2 |
| 20260504200026 | 22 | 315 | 17.7 | 27.4 | 0.00 | 0.00 | 0.00 | 30 | 1010.3 |
| 20260504195516 | 22 | 293 | 11.3 | 24.1 | 0.00 | 0.00 | 0.00 | 29 | 1010.2 |
| 20260504195015 | 22 | 315 | 12.9 | 20.9 | 0.00 | 0.00 | 0.00 | 29 | 1010.3 |
| 20260504194536 | 22 | 315 | 14.5 | 22.5 | 0.00 | 0.00 | 0.00 | 29 | 1010.3 |
| 20260504194016 | 22 | 338 | 14.5 | 29.0 | 0.00 | 0.00 | 0.00 | 31 | 1010.8 |
| 20260504193516 | 22 | 338 | 14.5 | 24.1 | 0.00 | 0.00 | 0.00 | 30 | 1010.8 |
| 20260504193016 | 22 | 0 | 12.9 | 19.3 | 0.00 | 0.00 | 0.00 | 31 | 1011.0 |
| 20260504192516 | 22 | 0 | 6.4 | 14.5 | 0.00 | 0.00 | 0.00 | 32 | 1011.0 |
| 20260504192016 | 22 | 338 | 9.7 | 16.1 | 0.00 | 0.00 | 0.00 | 31 | 1011.0 |
| 20260504191516 | 22 | 0 | 11.3 | 19.3 | 0.00 | 0.00 | 0.00 | 30 | 1011.1 |
| 20260504191015 | 22 | 45 | 8.0 | 17.7 | 0.00 | 0.00 | 0.00 | 29 | 1010.9 |
| 20260504190515 | 22 | 315 | 12.9 | 19.3 | 0.00 | 0.00 | 0.00 | 31 | 1011.0 |
| 20260504190016 | 22 | 315 | 9.7 | 20.9 | 0.00 | 0.00 | 0.00 | 31 | 1010.9 |
| 20260504185516 | 21 | 338 | 4.8 | 14.5 | 0.00 | 0.00 | 0.00 | 31 | 1011.1 |
| 20260504185036 | 21 | 315 | 8.0 | 17.7 | 0.00 | 0.00 | 0.00 | 31 | 1011.2 |
| 20260504184515 | 21 | 338 | 14.5 | 19.3 | 0.00 | 0.00 | 0.00 | 32 | 1011.1 |
| 20260504184016 | 21 | 270 | 8.0 | 16.1 | 0.00 | 0.00 | 0.00 | 32 | 1010.9 |
| 20260504183515 | 21 | 225 | 4.8 | 9.7 | 0.00 | 0.00 | 0.00 | 28 | 1010.8 |
| 20260504183017 | 21 | 270 | 8.0 | 14.5 | 0.00 | 0.00 | 0.00 | 29 | 1011.1 |
| 20260504182516 | 21 | 293 | 9.7 | 17.7 | 0.00 | 0.00 | 0.00 | 29 | 1011.1 |
| 20260504182016 | 21 | 270 | 9.7 | 14.5 | 0.00 | 0.00 | 0.00 | 29 | 1011.1 |
| 20260504181516 | 21 | 315 | 6.4 | 12.9 | 0.00 | 0.00 | 0.00 | 29 | 1011.3 |
| 20260504181015 | 21 | 270 | 4.8 | 11.3 | 0.00 | 0.00 | 0.00 | 30 | 1011.7 |
| 20260504180536 | 21 | 203 | 4.8 | 11.3 | 0.00 | 0.00 | 0.00 | 30 | 1011.7 |
| 20260504180015 | 20 | 270 | 3.2 | 9.7 | 0.00 | 0.00 | 0.00 | 28 | 1011.4 |
| 20260504175516 | 20 | 270 | 8.0 | 11.3 | 0.00 | 0.00 | 0.00 | 29 | 1011.8 |
| 20260504175036 | 20 | 203 | 4.8 | 9.7 | 0.00 | 0.00 | 0.00 | 29 | 1011.9 |
| 20260504174516 | 20 | 203 | 6.4 | 11.3 | 0.00 | 0.00 | 0.00 | 32 | 1011.9 |
| 20260504174015 | 20 | 203 | 6.4 | 11.3 | 0.00 | 0.00 | 0.00 | 30 | 1011.9 |
| 20260504173515 | 20 | 293 | 6.4 | 9.7 | 0.00 | 0.00 | 0.00 | 32 | 1011.6 |
| 20260504173016 | 20 | 338 | 4.8 | 8.0 | 0.00 | 0.00 | 0.00 | 30 | 1011.6 |
| 20260504172515 | 20 | 315 | 6.4 | 12.9 | 0.00 | 0.00 | 0.00 | 32 | 1011.7 |
| 20260504172016 | 20 | 315 | 9.7 | 14.5 | 0.00 | 0.00 | 0.00 | 33 | 1011.8 |
| 20260504171515 | 20 | 293 | 8.0 | 16.1 | 0.00 | 0.00 | 0.00 | 32 | 1011.8 |
| 20260504171015 | 20 | 315 | 8.0 | 14.5 | 0.00 | 0.00 | 0.00 | 33 | 1011.8 |
| 20260504170516 | 20 | 293 | 12.9 | 17.7 | 0.00 | 0.00 | 0.00 | 32 | 1011.8 |
| 20260504151015 | 17 | 0 | 4.8 | 8.0 | 0.00 | 0.00 | 0.00 | 39 | 1011.4 |
| 20260504150535 | 16 | 0 | 6.4 | 9.7 | 0.00 | 0.00 | 0.00 | 40 | 1011.5 |
| 20260504141015 | 15 | 68 | 4.8 | 6.4 | 0.00 | 0.00 | 0.00 | 44 | 1011.2 |
| 20260504140517 | 14 | 0.0 | 3.2 | 0.00 | 0.00 | 0.00 | 43 | 1011.2 | |
| 20260504130537 | 13 | 113 | 8.0 | 12.9 | 0.00 | 0.00 | 0.00 | 42 | 1011.6 |